Regional Weather Roundup
Issued by NWS

Home | Current Version | Previous Version | Text Only | Print | Product List | Glossary Off
Versions: 1 2 3 4 5 6 7 8 9 10 11 12 13 14 15 16 17 18 19 20 21 22 23 24 25 26 27 28 29 30 31 32 33 34 35 36 37 38 39 40 41 42 43 44 45 46 47 48 49 50

000
ASUS43 KLSX 212259
RWRMO

WEATHER SUMMARY FOR MISSOURI
NATIONAL WEATHER SERVICE SPRINGFIELD MO
600 PM CDT THU AUG 21 2014

NOTE: "FAIR" INDICATES FEW OR NO CLOUDS BELOW 12,000 FEET WITH NO
       SIGNIFICANT WEATHER AND/OR OBSTRUCTIONS TO VISIBILITY.
       CURRENT SKY AND/OR WEATHER CONDITIONS ARE NOT AVAILABLE FOR
       CHILLICOTHE AND FARMINGTON.

MOZ001>031-035>038-043-044-053-054-220000-
...NORTHERN AND WESTERN MISSOURI...

CITY           SKY/WX    TMP DP  RH WIND       PRES   REMARKS
KANSAS CTY INT MOSUNNY   94  73  50 S15       29.85S HX 103
KANSAS C DTWN  SUNNY     96  71  44 S16G23    29.83F HX 103
LEE`S SUMMIT   SUNNY     93  71  48 S13G21    29.87F HX 100
ST JOSEPH      MOSUNNY   91  77  63 S8        29.82F HX 104
KIRKSVILLE     PTSUNNY   87  76  69 S7        29.91S HX  97

$$
MOZ066>068-077>081-088>096-101>105-220000-
...SOUTHWEST MISSOURI...

CITY           SKY/WX    TMP DP  RH WIND       PRES   REMARKS
SPRINGFIELD    MOSUNNY   95  64  35 S10       29.96F HX  97
JOPLIN         SUNNY     93  68  43 S17G26    29.94S HX  97

$$
MOZ032>034-039>042-045>050-055>058-069>072-220000-
...CENTRAL MISSOURI...

CITY           SKY/WX    TMP DP  RH WIND       PRES   REMARKS
COLUMBIA       PTSUNNY   90  73  57 S7        29.92S HX  98
JEFFERSON CITY MOSUNNY   93  70  46 S7        29.90S HX  99
ROLLA          SUNNY     91  70  49 S8        29.94F HX  96
SEDALIA        PTSUNNY   91  73  55 S8        29.91F HX  99
OSAGE BEACH    MOSUNNY   97  68  38 SW6       29.92S HX 101

$$
MOZ051-052-059>065-220000-
...EAST CENTRAL MISSOURI...

CITY           SKY/WX    TMP DP  RH WIND       PRES   REMARKS
ST LOUIS INTL  PTSUNNY   95  71  45 SW9       29.93F HX 102
SPIRIT OF STL  PTSUNNY   93  74  53 S6        29.90F HX 103
ST CHARLES     MOSUNNY   93  74  53 SW8       29.90F HX 103

$$
MOZ072>076-082>087-097>100-106>115-220000-
...SOUTH CENTRAL AND SOUTHEAST MISSOURI...

CITY           SKY/WX    TMP DP  RH WIND       PRES   REMARKS
CAPE GIRARDEAU PTSUNNY   88  76  67 S12       29.97F HX  99
FARMINGTON     MOSUNNY   93  68  43 S13       29.98S HX  97
POPLAR BLUFF   PTSUNNY   89  73  59 S7        29.96F HX  97
WEST PLAINS    SUNNY     91  65  41 S9        30.01S HX  93

$$


USA.gov is the U.S. government's official web portal to all federal, state and local government web resources and services.